When you browse on this site, cookies collect data to enhance your experience and personalize the content and advertising you see.
Visit our Privacy Policy to learn more. By continuing to use the site, you agree to this use of cookies and data.
  • In Czech Republic
  • List of Countries
  • For 7 days
  • Water Temperature
  • Weather Map
  • Weather Widgets
  • user-avatar
    Login

    Hourly Weather Chitole

    Today, 20 September, Friday

    Time Temperature Precipitation Wind Pressure Humidity
    00:00 +20°C° 0 mm 3 mps 671 mmHg 17%
    01:00 +19°C° 0 mm 3 mps 671 mmHg 17%
    02:00 +19°C° 0 mm 3 mps 671 mmHg 19%
    03:00 +18°C° 0 mm 3 mps 671 mmHg 21%
    04:00 +18°C° 0 mm 3 mps 671 mmHg 23%
    05:00 +19°C° 0 mm 4 mps 672 mmHg 22%
    06:00 +21°C° 0 mm 4 mps 673 mmHg 20%
    07:00 +23°C° 0 mm 5 mps 674 mmHg 19%
    08:00 +27°C° 0 mm 5 mps 674 mmHg 16%
    09:00 +32°C° 0 mm 5 mps 674 mmHg 14%
    10:00 +35°C° 0 mm 5 mps 675 mmHg 12%
    11:00 +36°C° 0 mm 5 mps 674 mmHg 10%
    12:00 +37°C° 0 mm 4 mps 673 mmHg 9%
    13:00 +38°C° 0 mm 3 mps 672 mmHg 7%
    14:00 +38°C° 0 mm 3 mps 672 mmHg 7%
    15:00 +37°C° 0 mm 3 mps 671 mmHg 7%
    16:00 +37°C° 0 mm 3 mps 671 mmHg 7%
    17:00 +34°C° 0 mm 3 mps 671 mmHg 8%
    18:00 +30°C° 0 mm 2 mps 670 mmHg 10%
    19:00 +26°C° 0 mm 2 mps 670 mmHg 11%
    20:00 +25°C° 0 mm 2 mps 670 mmHg 12%
    21:00 +24°C° 0 mm 2 mps 670 mmHg 12%
    22:00 +23°C° 0 mm 2 mps 671 mmHg 13%
    23:00 +21°C° 0 mm 2 mps 670 mmHg 14%

    Tomorrow, 21 September, Saturday

    Time Temperature Precipitation Wind Pressure Humidity
    00:00 +20°C° 0 mm 2 mps 670 mmHg 16%
    01:00 +19°C° 0 mm 2 mps 669 mmHg 17%
    02:00 +19°C° 0 mm 2 mps 669 mmHg 20%
    03:00 +18°C° 0 mm 2 mps 669 mmHg 24%
    04:00 +18°C° 0 mm 3 mps 670 mmHg 27%
    05:00 +19°C° 0 mm 4 mps 670 mmHg 27%
    06:00 +21°C° 0 mm 5 mps 671 mmHg 27%
    07:00 +23°C° 0 mm 6 mps 672 mmHg 28%
    08:00 +28°C° 0 mm 5 mps 673 mmHg 23%
    09:00 +32°C° 0 mm 5 mps 673 mmHg 19%
    10:00 +36°C° 0 mm 5 mps 673 mmHg 15%
    11:00 +38°C° 0 mm 4 mps 673 mmHg 13%
    12:00 +40°C° 0 mm 2 mps 672 mmHg 10%
    13:00 +42°C° 0 mm 1 mps 672 mmHg 8%
    14:00 +41°C° 0 mm 1 mps 671 mmHg 8%
    15:00 +40°C° 0 mm 1 mps 670 mmHg 9%
    16:00 +39°C° 0 mm 1 mps 670 mmHg 9%
    17:00 +35°C° 0 mm 1 mps 670 mmHg 11%
    18:00 +32°C° 0 mm 2 mps 669 mmHg 13%
    19:00 +29°C° 0 mm 2 mps 669 mmHg 15%
    20:00 +27°C° 0 mm 2 mps 669 mmHg 16%
    21:00 +26°C° 0 mm 2 mps 669 mmHg 16%
    22:00 +25°C° 0 mm 2 mps 670 mmHg 17%
    23:00 +24°C° 0 mm 2 mps 669 mmHg 19%

    Day after tomorrow, 22 September, Sunday

    Time Temperature Precipitation Wind Pressure Humidity
    00:00 +23°C° 0 mm 1 mps 669 mmHg 21%
    01:00 +22°C° 0 mm 1 mps 669 mmHg 23%
    02:00 +21°C° 0 mm 1 mps 669 mmHg 24%
    03:00 +21°C° 0 mm 1 mps 669 mmHg 25%
    04:00 +19°C° 0 mm 2 mps 669 mmHg 27%
    05:00 +21°C° 0 mm 2 mps 670 mmHg 25%
    06:00 +24°C° 0 mm 2 mps 671 mmHg 24%
    07:00 +25°C° 0 mm 2 mps 672 mmHg 22%
    08:00 +29°C° 0 mm 2 mps 672 mmHg 21%
    09:00 +33°C° 0 mm 3 mps 672 mmHg 19%
    10:00 +36°C° 0 mm 3 mps 672 mmHg 17%
    11:00 +38°C° 0 mm 2 mps 672 mmHg 15%
    12:00 +40°C° 0 mm 2 mps 671 mmHg 12%
    13:00 +42°C° 0 mm 1 mps 671 mmHg 10%
    14:00 +41°C° 0 mm 1 mps 670 mmHg 10%
    15:00 +40°C° 0 mm 1 mps 670 mmHg 10%
    16:00 +39°C° 0 mm 2 mps 669 mmHg 10%
    17:00 +35°C° 0 mm 1 mps 669 mmHg 13%
    18:00 +32°C° 0 mm 1 mps 669 mmHg 16%
    19:00 +29°C° 0 mm 1 mps 669 mmHg 19%
    20:00 +28°C° 0 mm 1 mps 669 mmHg 19%
    21:00 +27°C° 0 mm 1 mps 669 mmHg 20%
    22:00 +26°C° 0 mm 1 mps 669 mmHg 20%
    23:00 +25°C° 0 mm 1 mps 669 mmHg 20%

    23 September, Monday

    Time Temperature Precipitation Wind Pressure Humidity
    00:00 +24°C° 0 mm 1 mps 669 mmHg 21%
    01:00 +23°C° 0 mm 2 mps 668 mmHg 21%
    02:00 +22°C° 0 mm 1 mps 669 mmHg 22%
    03:00 +21°C° 0 mm 1 mps 669 mmHg 23%
    04:00 +19°C° 0 mm 1 mps 669 mmHg 24%
    05:00 +21°C° 0 mm 1 mps 670 mmHg 22%
    06:00 +23°C° 0 mm 1 mps 671 mmHg 20%
    07:00 +25°C° 0 mm 1 mps 671 mmHg 18%
    08:00 +29°C° 0 mm 2 mps 672 mmHg 16%
    09:00 +33°C° 0 mm 3 mps 672 mmHg 14%
    10:00 +37°C° 0 mm 4 mps 672 mmHg 11%
    11:00 +38°C° 0 mm 4 mps 672 mmHg 10%
    12:00 +41°C° 0 mm 4 mps 671 mmHg 9%
    13:00 +42°C° 0 mm 4 mps 671 mmHg 8%
    14:00 +42°C° 0 mm 4 mps 670 mmHg 8%
    15:00 +42°C° 0 mm 4 mps 670 mmHg 8%
    16:00 +41°C° 0 mm 4 mps 670 mmHg 8%
    17:00 +37°C° 0 mm 4 mps 670 mmHg 10%
    18:00 +34°C° 0 mm 3 mps 669 mmHg 12%
    19:00 +30°C° 0 mm 2 mps 669 mmHg 15%
    20:00 +29°C° 0 mm 2 mps 670 mmHg 15%
    21:00 +29°C° 0 mm 2 mps 670 mmHg 16%
    22:00 +28°C° 0 mm 2 mps 670 mmHg 17%
    23:00 +26°C° 0 mm 2 mps 670 mmHg 19%

    24 September, Tuesday

    Time Temperature Precipitation Wind Pressure Humidity
    00:00 +24°C° 0 mm 1 mps 669 mmHg 21%
    01:00 +23°C° 0 mm 1 mps 669 mmHg 24%
    02:00 +22°C° 0 mm 1 mps 669 mmHg 25%
    03:00 +21°C° 0 mm 2 mps 669 mmHg 25%
    04:00 +20°C° 0 mm 2 mps 670 mmHg 26%
    05:00 +24°C° 0 mm 3 mps 671 mmHg 24%
    06:00 +26°C° 0 mm 4 mps 672 mmHg 22%
    07:00 +28°C° 0 mm 5 mps 673 mmHg 20%
    08:00 +32°C° 0 mm 5 mps 673 mmHg 18%
    09:00 +34°C° 0 mm 6 mps 673 mmHg 16%
    10:00 +38°C° 0 mm 7 mps 674 mmHg 15%
    11:00 +39°C° 0 mm 6 mps 673 mmHg 13%
    12:00 +41°C° 0 mm 6 mps 673 mmHg 12%
    13:00 +42°C° 0 mm 5 mps 672 mmHg 11%
    14:00 +41°C° 0 mm 5 mps 672 mmHg 11%
    15:00 +41°C° 0 mm 5 mps 671 mmHg 12%
    16:00 +40°C° 0 mm 5 mps 671 mmHg 12%
    17:00 +36°C° 0 mm 4 mps 670 mmHg 15%
    18:00 +34°C° 0 mm 4 mps 670 mmHg 17%
    19:00 +30°C° 0 mm 3 mps 670 mmHg 20%
    20:00 +29°C° 0 mm 3 mps 671 mmHg 21%
    21:00 +28°C° 0 mm 3 mps 671 mmHg 22%
    22:00 +27°C° 0 mm 3 mps 671 mmHg 24%
    23:00 +26°C° 0 mm 3 mps 671 mmHg 26%

    25 September, Wednesday

    Time Temperature Precipitation Wind Pressure Humidity
    00:00 +25°C° 0 mm 3 mps 670 mmHg 28%
    01:00 +25°C° 0 mm 3 mps 670 mmHg 30%
    02:00 +24°C° 0 mm 3 mps 670 mmHg 32%
    03:00 +23°C° 0 mm 2 mps 670 mmHg 35%
    04:00 +21°C° 0 mm 2 mps 670 mmHg 37%
    05:00 +24°C° 0 mm 3 mps 671 mmHg 35%
    06:00 +26°C° 0 mm 4 mps 672 mmHg 32%
    07:00 +28°C° 0 mm 5 mps 673 mmHg 29%
    08:00 +30°C° 0 mm 6 mps 673 mmHg 25%
    09:00 +34°C° 0 mm 6 mps 674 mmHg 21%
    10:00 +38°C° 0 mm 6 mps 674 mmHg 17%
    11:00 +39°C° 0 mm 6 mps 673 mmHg 15%
    12:00 +40°C° 0 mm 5 mps 673 mmHg 12%
    13:00 +41°C° 0 mm 5 mps 672 mmHg 10%
    14:00 +41°C° 0 mm 5 mps 672 mmHg 10%
    15:00 +41°C° 0 mm 5 mps 671 mmHg 10%
    16:00 +40°C° 0 mm 5 mps 671 mmHg 10%
    17:00 +36°C° 0 mm 4 mps 670 mmHg 13%
    18:00 +33°C° 0 mm 3 mps 670 mmHg 15%
    19:00 +29°C° 0 mm 2 mps 670 mmHg 18%
    20:00 +28°C° 0 mm 2 mps 670 mmHg 20%
    21:00 +27°C° 0 mm 2 mps 670 mmHg 22%
    22:00 +26°C° 0 mm 2 mps 670 mmHg 24%
    23:00 +25°C° 0 mm 2 mps 670 mmHg 26%
    Show more